User: anonymous   Login
Location: Unspecified
(0.0000°N, 0.0000°E)
Time: 22:58:29
(UTC+00:00)
Language:

Tiangong 1 - Orbit

View from above orbital plane
View from above orbital plane
View from above satellite
View from above satellite

Ground track
Ground track

The orbit data is extracted from the following two-line orbital elements,

1 37820U 11053A   15027.50262777  .00033607  00000-0  29721-3 0  7903
2 37820 042.7701 040.1663 0013733 245.2802 247.5629 15.67873979191269
Epoch (UTC): 27 January 2015 12:03:47
Eccentricity: 0.0013733
inclination: 42.7701°
perigee height: 356 km
apogee height: 374 km
right ascension of ascending node: 40.1663°
argument of perigee: 245.2802°
revolutions per day: 15.67873979
mean anomaly at epoch: 247.5629°
orbit number at epoch: 19126

The dashed part of the orbit path shows where the satellite is in the earth's shadow,  

DLR